Regional Weather Roundup
Issued by NWS

Home | Current Version | Previous Version | Graphics & Text | Print | Product List | Glossary On
Versions: 1 2 3 4 5 6 7 8 9 10 11 12 13 14 15 16 17 18 19 20 21 22 23 24 25 26 27 28 29 30 31 32 33 34 35 36 37 38 39 40 41 42 43 44 45 46 47 48 49 50
000
ASUS45 KTFX 221704
RWRMT
MONTANA HOURLY WEATHER ROUNDUP
NATIONAL WEATHER SERVICE GREAT FALLS MT
1104 AM MDT FRI AUG 22 2014

NOTE: "FAIR" INDICATES FEW OR NO CLOUDS BELOW 12000 FEET WITH NO
SIGNIFICANT WEATHER AND/OR OBSTRUCTIONS TO VISIBILITY.

* THESE STATIONS ARE NOT UNDER NWS QUALITY CONTROL. THEY DO NOT
   REPORT WEATHER SUCH AS PRECIPITATION OR FOG.

MTZ001>007-043-221800-
WEST OF THE DIVIDE
CITY           SKY/WX    TMP DP  RH WIND       PRES   REMARKS
KALISPELL      CLOUDY    55  48  77 NW5       30.09S
MISSOULA       CLOUDY    57  54  90 NW8       30.08R
BUTTE          CLOUDY    54  45  72 NW6       30.12S
MULLAN PASS    CLOUDY    52  45  77 VRB5      30.11S
* ESSEX        N/A       53  44  72 E3         N/A
* LINCOLN      N/A       55  47  75 NE11G18    N/A
* LOOKOUT PASS N/A       55  46  72 S6         N/A
* POLSON       N/A       60  50  70 N3         N/A
* RONAN APT    CLOUDY    59  54  84 N/A        N/A
* SEELEY LAKE  N/A       53  51  93 S1         N/A
* THOMP F APT  PTSUNNY   50  45  83 E4G10      N/A
$$

MTZ008-052>055-221800-
SOUTHWEST MONTANA
CITY           SKY/WX    TMP DP  RH WIND       PRES   REMARKS
BOZEMAN        CLOUDY    55  48  77 CALM      30.10F
DILLON         CLOUDY    54  48  80 N10       30.09F
* THREE FORKS  CLOUDY    55  37  51 N/A        N/A
* BOULDER HILL N/A       48  45  89 NE9        N/A
* MONIDA PASS  N/A       50  45  83 SE8        N/A
* RAYNOLDS PAS N/A       49  42  77 S4         N/A
* WHITEHALL    N/A       56  52  87 E2         N/A
* WISE RIVER   N/A       53  48  83 E5         N/A
$$

MTZ009>010-012-014-046-048-049-054-221800-
EAST SLOPES AND CENTRAL MONTANA
CITY           SKY/WX    TMP DP  RH WIND       PRES   REMARKS
CUT BANK       CLOUDY    54  48  80 NE13      30.18R
GREAT FALLS    LGT RAIN  52  52 100 E3        30.14R VSB 3
HELENA         CLOUDY    57  50  78 NW7       30.10F
MALMSTROM AFB  RAIN      52  52 100 N5        30.15R
* CONRAD       CLOUDY    52  52 100 NW8        N/A
* DEARBORN     N/A       54  51  90 VRB6       N/A
* EAST GLACIER N/A       47  46  96 NE3G9      N/A
* MONARCH      N/A       49  45  86 NW6        N/A
* PENDROY      N/A       49  49 100 NE8        N/A
* ROGERS PASS  N/A       47  47 100 S3G8       N/A
* SAINT MARY   N/A       48  47  96 NE2        N/A
* SWEET GRASS  N/A       50  50 100 NE20       N/A
$$

MTZ011-013-016-021-035-040-045-047-050-051-221800-
NORTH CENTRAL MONTANA
CITY           SKY/WX    TMP DP  RH WIND       PRES   REMARKS
HAVRE          CLOUDY    61  54  78 E18       30.11S
LEWISTOWN      CLOUDY    57  54  90 VRB3      30.12S
* CHESTER      N/A       53  50  90 NE11G17    N/A
* DENTON       N/A       54  53  96 NW6        N/A
* GEYSER       N/A       52  50  93 N2         N/A
* JUDITH GAP   N/A       52  52 100 N11        N/A
* LOMA         N/A       57  55  93 NW6        N/A
$$

MTZ017>020-022>027-061-062-221800-
NORTHEAST MONTANA
CITY           SKY/WX    TMP DP  RH WIND       PRES   REMARKS
GLASGOW        CLOUDY    59  57  93 E13       30.12R
GLENDIVE       CLOUDY    63  61  93 NE14      30.10S
JORDAN         CLOUDY    64  57  78 E7        30.08F
SIDNEY         CLOUDY    64  59  84 NE9       30.11R
WOLF POINT     LGT RAIN  61  57  87 E10       30.12S
* BEAVER HILL  N/A       65  59  81 N/A        N/A
* CIRCLE       N/A       61  59  93 NE13       N/A
* LINDSAY DVD  N/A       61  59  93 NE14       N/A
* SACO         N/A       58  57  96 NE8        N/A
$$

MTZ028>042-056>058-221800-
SOUTHCENTRAL AND SOUTHEAST MONTANA
CITY           SKY/WX    TMP DP  RH WIND       PRES   REMARKS
BAKER          CLOUDY    68  59  73 E5        30.09S
BILLINGS       LGT RAIN  57  55  93 NE9       30.10R VSB 2
LIVINGSTON     CLOUDY    57  48  72 E5        30.10F
MILES CITY     CLOUDY    64  55  73 CALM      30.07F
* LAUREL APT   CLOUDY    57  54  90 N6         N/A
* ROUNDUP APT  CLOUDY    57  54  90 NE6        N/A
* ALZADA       N/A       66  58  76 NE1        N/A
* HYSHAM       N/A       60  55  84 NE5        N/A
* LAME DEER    N/A       56  55  96 N/A        N/A
* REED POINT   N/A       61  52  72 E6         N/A
* ROSCOE HILL  N/A       55  47  75 N4         N/A
$$

REGIONAL REPORTS...DAKOTAS
CITY           SKY/WX    TMP DP  RH WIND       PRES   REMARKS
WILLISTON      PTSUNNY   68  54  61 NE16      30.10F
DICKINSON      CLOUDY    66  61  84 E8        30.06S
BEACH          N/A       64  64 100 E10       30.09S
CROSBY         PTSUNNY   63  57  81 NE12      30.14S
TIOGA          CLOUDY    63  61  93 NE14      30.14F
WATFORD CITY   CLOUDY    63  57  81 NE12      30.08F
BISMARCK       PTSUNNY   75  64  69 SE5       30.05S
GRAND FORKS    CLOUDY    68  64  87 N10       29.99S
FARGO          CLOUDY    72  68  87 N9        29.97F
BUFFALO SD     PTSUNNY   64  57  78 CALM      30.02F
RAPID CITY     CLOUDY    68  61  78 CALM      30.08S
$$

REGIONAL REPORTS...WYOMING/IDAHO/WASHINGTON
CITY           SKY/WX    TMP DP  RH WIND       PRES   REMARKS
GILLETTE       PTSUNNY   70  54  57 SE8       30.10S
SHERIDAN       CLOUDY    61  57  87 N5        30.08F
CODY           CLOUDY    57  52  83 N3        30.11S
YELLOWSTONE LA CLOUDY    46  45  96 CALM      30.23S
SALMON         PTSUNNY   63  52  68 NW3       30.00S
MULLAN PASS    CLOUDY    52  45  77 VRB5      30.11S
SAND POINT     PTSUNNY  N/A N/A N/A NE18      30.04R
SPOKANE        PTSUNNY   61  54  78 E8        30.00S
$$

REGIONAL REPORTS...SASKATCHEWAN
CITY           SKY/WX    TMP DP  RH WIND       PRES   REMARKS
SWIFT CURRENT  LGT RAIN  54  52  93 NE12      30.21S

$$




USA.gov is the U.S. government's official web portal to all federal, state and local government web resources and services.